When you browse on this site, cookies collect data to enhance your experience and personalize the content and advertising you see.
Visit our Privacy Policy to learn more. By continuing to use the site, you agree to this use of cookies and data.

Stündliche Wetter Hamarnya

Heute, 11 August, Dienstag

Zeit Temperatur Niederschläge Wind Luftdruck Luftfeuchtigkeit
00:00 +19°C° 0 mm 2 m/S 740 mmHg 80%
01:00 +18°C° 0 mm 2 m/S 740 mmHg 82%
02:00 +18°C° 0 mm 2 m/S 740 mmHg 84%
03:00 +18°C° 0 mm 2 m/S 740 mmHg 86%
04:00 +17°C° 0 mm 2 m/S 740 mmHg 87%
05:00 +18°C° 0 mm 1 m/S 740 mmHg 88%
06:00 +20°C° 0 mm 1 m/S 740 mmHg 83%
07:00 +20°C° 0 mm 2 m/S 740 mmHg 78%
08:00 +23°C° 0 mm 2 m/S 741 mmHg 72%
09:00 +24°C° 0.1 mm 2 m/S 741 mmHg 67%
10:00 +25°C° 0.1 mm 2 m/S 741 mmHg 61%
11:00 +27°C° 0.1 mm 2 m/S 741 mmHg 56%
12:00 +27°C° 0.1 mm 2 m/S 741 mmHg 54%
13:00 +28°C° 0.1 mm 2 m/S 740 mmHg 53%
14:00 +28°C° 0.1 mm 3 m/S 740 mmHg 51%
15:00 +28°C° 0 mm 3 m/S 740 mmHg 54%
16:00 +27°C° 0 mm 3 m/S 740 mmHg 57%
17:00 +27°C° 0 mm 3 m/S 740 mmHg 60%
18:00 +25°C° 0.1 mm 3 m/S 740 mmHg 66%
19:00 +24°C° 0.1 mm 2 m/S 740 mmHg 72%
20:00 +22°C° 0.1 mm 1 m/S 740 mmHg 79%
21:00 +21°C° 0.1 mm 1 m/S 740 mmHg 81%
22:00 +20°C° 0.1 mm 2 m/S 740 mmHg 83%
23:00 +19°C° 0.1 mm 2 m/S 740 mmHg 85%

Morgen, 12 August, Mittwoch

Zeit Temperatur Niederschläge Wind Luftdruck Luftfeuchtigkeit
00:00 +19°C° 0 mm 2 m/S 740 mmHg 87%
01:00 +18°C° 0 mm 2 m/S 740 mmHg 89%
02:00 +18°C° 0 mm 2 m/S 740 mmHg 91%
03:00 +17°C° 0 mm 2 m/S 740 mmHg 93%
04:00 +17°C° 0 mm 3 m/S 740 mmHg 94%
05:00 +17°C° 0 mm 3 m/S 740 mmHg 95%
06:00 +18°C° 0 mm 3 m/S 741 mmHg 91%
07:00 +19°C° 0 mm 3 m/S 741 mmHg 88%
08:00 +20°C° 0 mm 4 m/S 741 mmHg 84%
09:00 +21°C° 0 mm 4 m/S 741 mmHg 77%
10:00 +22°C° 0 mm 4 m/S 741 mmHg 71%
11:00 +23°C° 0 mm 5 m/S 741 mmHg 64%
12:00 +23°C° 0 mm 5 m/S 741 mmHg 61%
13:00 +23°C° 0 mm 5 m/S 741 mmHg 59%
14:00 +23°C° 0 mm 5 m/S 741 mmHg 56%
15:00 +23°C° 0 mm 5 m/S 741 mmHg 57%
16:00 +22°C° 0 mm 5 m/S 742 mmHg 58%
17:00 +22°C° 0 mm 5 m/S 742 mmHg 58%
18:00 +20°C° 0 mm 4 m/S 742 mmHg 64%
19:00 +19°C° 0 mm 3 m/S 742 mmHg 69%
20:00 +17°C° 0 mm 2 m/S 742 mmHg 75%
21:00 +16°C° 0 mm 2 m/S 742 mmHg 77%
22:00 +15°C° 0 mm 2 m/S 742 mmHg 79%
23:00 +15°C° 0 mm 2 m/S 742 mmHg 82%

übermorgen, 13 August, Donnerstag

Zeit Temperatur Niederschläge Wind Luftdruck Luftfeuchtigkeit
00:00 +14°C° 0 mm 1 m/S 743 mmHg 83%
01:00 +14°C° 0 mm 1 m/S 743 mmHg 85%
02:00 +13°C° 0 mm 1 m/S 743 mmHg 87%
03:00 +13°C° 0 mm 1 m/S 743 mmHg 87%
04:00 +13°C° 0 mm 1 m/S 742 mmHg 88%
05:00 +12°C° 0 mm 1 m/S 742 mmHg 89%
06:00 +14°C° 0 mm 1 m/S 742 mmHg 82%
07:00 +16°C° 0 mm 1 m/S 743 mmHg 76%
08:00 +19°C° 0 mm 1 m/S 743 mmHg 69%
09:00 +20°C° 0 mm 1 m/S 743 mmHg 64%
10:00 +21°C° 0 mm 1 m/S 743 mmHg 59%
11:00 +23°C° 0 mm 1 m/S 743 mmHg 54%
12:00 +23°C° 0 mm 1 m/S 742 mmHg 54%
13:00 +23°C° 0 mm 1 m/S 742 mmHg 53%
14:00 +23°C° 0 mm 1 m/S 742 mmHg 53%
15:00 +23°C° 0 mm 1 m/S 741 mmHg 53%
16:00 +23°C° 0 mm 2 m/S 741 mmHg 54%
17:00 +23°C° 0 mm 2 m/S 741 mmHg 54%
18:00 +20°C° 0 mm 2 m/S 741 mmHg 60%
19:00 +18°C° 0 mm 2 m/S 741 mmHg 65%
20:00 +18°C° 0 mm 1 m/S 741 mmHg 71%
21:00 +16°C° 0 mm 1 m/S 741 mmHg 74%
22:00 +15°C° 0 mm 1 m/S 741 mmHg 77%
23:00 +14°C° 0 mm 1 m/S 741 mmHg 80%

14 August, Freitag

Zeit Temperatur Niederschläge Wind Luftdruck Luftfeuchtigkeit
00:00 +14°C° 0 mm 1 m/S 741 mmHg 81%
01:00 +14°C° 0 mm 2 m/S 741 mmHg 83%
02:00 +13°C° 0 mm 2 m/S 741 mmHg 84%
03:00 +13°C° 0 mm 2 m/S 741 mmHg 86%
04:00 +13°C° 0 mm 2 m/S 741 mmHg 88%
05:00 +12°C° 0 mm 2 m/S 741 mmHg 90%
06:00 +14°C° 0 mm 2 m/S 741 mmHg 84%
07:00 +16°C° 0 mm 2 m/S 741 mmHg 78%
08:00 +17°C° 0 mm 2 m/S 741 mmHg 72%
09:00 +19°C° 0 mm 2 m/S 742 mmHg 67%
10:00 +20°C° 0 mm 2 m/S 742 mmHg 61%
11:00 +23°C° 0 mm 2 m/S 742 mmHg 56%
12:00 +23°C° 0 mm 2 m/S 742 mmHg 54%
13:00 +24°C° 0 mm 2 m/S 741 mmHg 51%
14:00 +24°C° 0 mm 2 m/S 741 mmHg 48%
15:00 +24°C° 0 mm 2 m/S 741 mmHg 49%
16:00 +24°C° 0 mm 3 m/S 741 mmHg 49%
17:00 +24°C° 0 mm 3 m/S 740 mmHg 50%
18:00 +21°C° 0 mm 3 m/S 740 mmHg 54%
19:00 +19°C° 0 mm 3 m/S 740 mmHg 59%
20:00 +17°C° 0 mm 3 m/S 740 mmHg 63%
21:00 +17°C° 0 mm 3 m/S 741 mmHg 66%
22:00 +15°C° 0 mm 4 m/S 741 mmHg 70%
23:00 +14°C° 0 mm 4 m/S 741 mmHg 73%

15 August, Samstag

Zeit Temperatur Niederschläge Wind Luftdruck Luftfeuchtigkeit
00:00 +14°C° 0 mm 4 m/S 741 mmHg 74%
01:00 +13°C° 0 mm 4 m/S 741 mmHg 76%
02:00 +13°C° 0 mm 4 m/S 741 mmHg 77%
03:00 +13°C° 0 mm 4 m/S 740 mmHg 77%
04:00 +12°C° 0 mm 4 m/S 740 mmHg 77%
05:00 +12°C° 0 mm 4 m/S 740 mmHg 77%
06:00 +14°C° 0 mm 5 m/S 740 mmHg 73%
07:00 +15°C° 0 mm 5 m/S 740 mmHg 68%
08:00 +17°C° 0 mm 5 m/S 740 mmHg 63%
09:00 +20°C° 0 mm 5 m/S 740 mmHg 60%
10:00 +21°C° 0 mm 6 m/S 740 mmHg 56%
11:00 +23°C° 0 mm 6 m/S 740 mmHg 52%
12:00 +25°C° 0 mm 5 m/S 740 mmHg 51%
13:00 +26°C° 0 mm 5 m/S 739 mmHg 50%
14:00 +27°C° 0 mm 5 m/S 739 mmHg 48%
15:00 +26°C° 0 mm 5 m/S 739 mmHg 50%
16:00 +26°C° 0 mm 4 m/S 739 mmHg 52%
17:00 +26°C° 0 mm 4 m/S 738 mmHg 53%
18:00 +25°C° 0 mm 4 m/S 738 mmHg 54%
19:00 +23°C° 0 mm 5 m/S 738 mmHg 55%
20:00 +21°C° 0 mm 5 m/S 738 mmHg 56%
21:00 +21°C° 0 mm 5 m/S 738 mmHg 53%
22:00 +20°C° 0 mm 5 m/S 738 mmHg 51%
23:00 +20°C° 0 mm 5 m/S 738 mmHg 49%

16 August, Sonntag

Zeit Temperatur Niederschläge Wind Luftdruck Luftfeuchtigkeit
00:00 +19°C° 0 mm 5 m/S 738 mmHg 51%
01:00 +18°C° 0 mm 4 m/S 738 mmHg 53%
02:00 +18°C° 0 mm 4 m/S 738 mmHg 55%
03:00 +17°C° 0 mm 4 m/S 738 mmHg 57%
04:00 +17°C° 0 mm 4 m/S 737 mmHg 59%
05:00 +16°C° 0 mm 3 m/S 737 mmHg 61%
06:00 +17°C° 0 mm 4 m/S 737 mmHg 61%
07:00 +18°C° 0 mm 4 m/S 738 mmHg 62%
08:00 +19°C° 0 mm 4 m/S 738 mmHg 63%
09:00 +20°C° 0 mm 4 m/S 738 mmHg 61%
10:00 +20°C° 0 mm 4 m/S 738 mmHg 60%
11:00 +20°C° 0 mm 3 m/S 738 mmHg 59%
12:00 +20°C° 0 mm 3 m/S 738 mmHg 61%
13:00 +20°C° 0 mm 4 m/S 738 mmHg 64%
14:00 +20°C° 0 mm 4 m/S 738 mmHg 66%
15:00 +20°C° 0 mm 4 m/S 738 mmHg 68%
16:00 +20°C° 0 mm 3 m/S 738 mmHg 69%
17:00 +20°C° 0 mm 3 m/S 738 mmHg 70%
18:00 +19°C° 0 mm 3 m/S 738 mmHg 73%
19:00 +18°C° 0 mm 2 m/S 738 mmHg 75%
20:00 +17°C° 0 mm 2 m/S 738 mmHg 78%
21:00 +16°C° 0 mm 2 m/S 739 mmHg 77%
22:00 +16°C° 0 mm 1 m/S 739 mmHg 76%
23:00 +16°C° 0 mm 1 m/S 739 mmHg 75%
Mehr zeigen